RH
27 28 28 27 27 25 25 26 25 25 25 24 23 20 15 13 13 13 12 12 12 12 11 11 11 11 10 11 10 10 10 10 9 9 8 7 7 7 7 8 9 11 10 10 9 9 8 8 8 8 10 12 12 12 12 12 11 11 13 13 12 13 13 13 13 13 16 17 17 16 15 16 16 19 25 28 29 31 33 34 37 37 36 36 36 38 43 43
25 27 28 27 26 25 26 26 25 24 23 23 24 23 19 14 13 13 12 12 12 12 12 11 12 12 11 11 10 10 10 9 8 9 9 9 7 7 7 8 9 10 10 10 10 9 8 9 9 10 12 13 13 12 12 11 11 12 14 14 13 13 12 12 12 12 15 17 18 17 16 15 17 18 18 25 32 32 35 40 40 40 40 39 39 42 44 43
25 27 29 28 27 26 27 27 25 24 23 22 22 23 22 17 13 12 12 12 12 13 13 12 12 12 11 11 11 10 10 9 10 11 11 11 9 7 7 9 10 10 9 10 9 9 9 10 12 12 13 13 13 12 12 11 11 12 13 13 13 13 12 11 12 12 14 17 19 18 17 16 16 15 14 23 32 32 37 39 38 41 42 40 41 42 43 43
25 26 29 29 29 28 28 28 27 25 23 22 22 22 24 20 14 12 13 12 13 13 14 13 12 12 12 11 11 10 9 12 14 14 15 14 11 8 8 9 10 10 10 10 10 10 9 11 13 13 13 13 13 13 13 13 12 12 12 13 13 12 12 11 11 12 14 16 18 18 18 17 15 14 13 21 26 27 31 31 29 34 38 39 41 41 43 43
25 26 27 30 30 29 29 29 28 26 25 23 23 23 23 21 16 13 14 14 14 14 15 14 12 12 12 11 11 10 11 16 18 18 18 17 14 11 8 8 9 10 11 11 11 11 10 11 13 13 13 14 13 13 13 13 13 13 13 13 13 12 12 12 11 12 13 15 17 17 16 15 14 13 14 17 18 20 24 24 23 26 32 36 37 38 41 42
25 25 26 28 30 30 29 29 29 28 26 24 23 23 24 23 19 17 15 15 15 16 15 14 12 11 11 10 10 9 12 18 20 20 21 19 18 14 10 8 10 11 10 10 11 11 10 11 13 13 13 15 14 14 14 14 14 14 14 13 12 12 13 12 12 12 12 13 15 15 14 13 13 13 15 18 17 17 19 23 26 28 32 35 36 37 40 41
26 26 26 27 28 30 30 30 29 28 27 25 24 23 24 24 24 22 19 17 17 17 16 15 13 11 10 10 10 10 13 16 18 20 21 20 18 16 12 9 9 10 9 9 10 10 10 11 12 13 14 15 14 14 15 14 14 14 14 14 13 12 13 13 12 12 12 13 14 14 13 13 13 12 16 22 21 19 20 23 28 30 33 36 37 38 40 41
26 26 26 26 27 28 29 29 29 29 28 26 24 23 24 24 26 25 23 20 18 18 16 15 12 10 10 9 10 13 13 13 15 17 17 16 15 13 13 11 9 9 8 8 9 9 10 11 13 15 16 15 14 14 14 14 14 14 13 13 13 12 13 12 12 12 12 13 13 14 13 13 13 13 21 28 27 26 25 25 28 32 35 37 38 40 42 42
26 27 26 26 26 26 27 29 29 29 28 27 25 24 24 25 27 27 26 24 21 18 16 14 12 10 10 10 13 14 13 14 15 16 15 14 13 11 11 11 10 8 8 8 8 9 10 11 14 15 16 16 15 14 13 14 14 14 13 13 12 12 13 12 12 12 12 12 13 13 13 13 13 16 26 32 31 32 31 28 30 33 36 39 41 42 44 44
24 26 26 26 26 25 26 27 29 29 28 28 26 26 26 27 28 28 28 27 24 20 16 13 11 11 10 10 15 14 13 17 17 16 16 15 13 10 9 10 9 8 8 9 8 9 12 14 16 17 17 16 15 14 13 13 14 14 14 13 13 13 12 13 12 12 12 12 12 12 13 13 12 19 30 33 33 33 32 33 34 33 36 40 43 45 46 49
21 24 26 26 26 26 25 26 27 28 28 27 27 27 27 27 28 28 28 27 25 22 16 12 11 11 10 10 15 15 15 19 18 15 15 13 11 9 8 9 8 8 9 9 10 13 15 17 18 18 18 16 14 14 14 14 14 14 14 14 13 13 13 13 12 13 13 13 13 13 13 13 13 18 28 33 34 33 32 36 36 36 39 42 45 48 49 52
19 23 25 25 26 26 25 25 25 26 26 26 26 26 26 27 27 27 27 26 25 22 18 14 12 11 11 12 13 13 15 18 17 15 13 12 10 8 8 8 8 8 8 11 14 16 17 17 18 17 17 16 15 15 15 15 14 14 15 15 15 14 13 13 13 13 14 13 13 14 13 13 13 15 26 34 35 35 34 36 39 40 43 46 49 50 51 52
19 22 24 25 25 25 24 24 23 23 24 24 25 24 25 26 26 26 25 25 23 20 19 17 14 13 14 13 11 11 14 16 15 14 13 11 9 8 8 8 8 8 9 13 17 17 17 17 17 17 17 16 16 15 15 15 14 15 15 15 15 15 14 13 14 13 12 13 12 13 13 14 14 15 28 36 35 36 37 38 41 44 46 49 50 49 50 52
19 21 23 24 24 24 24 23 23 22 22 23 23 23 23 24 25 24 22 22 21 20 19 18 16 15 17 14 10 12 13 14 14 15 13 11 9 8 8 8 8 9 11 14 16 17 17 18 17 17 16 15 15 14 15 16 16 15 15 17 17 15 16 15 14 13 11 11 11 11 12 13 12 16 30 36 35 36 38 40 42 43 47 50 50 49 51 55
19 20 22 23 24 23 23 23 22 21 21 21 21 22 22 22 21 20 20 21 20 20 20 19 17 18 20 15 10 14 15 14 15 14 13 12 9 9 9 9 10 11 13 15 16 17 17 17 16 16 15 14 14 15 17 18 19 18 16 20 20 16 16 16 14 13 11 11 11 10 12 13 12 18 31 35 36 37 38 41 43 44 49 51 51 51 52 54
19 20 21 22 23 22 22 21 21 20 19 19 19 20 21 19 19 17 18 20 20 21 20 20 18 19 23 18 14 18 19 17 17 14 14 12 10 10 11 11 11 12 13 15 16 17 17 17 15 15 13 13 16 18 20 20 23 23 19 21 22 20 20 19 16 15 13 12 13 12 12 13 13 21 33 36 38 39 40 43 45 47 52 53 52 51 51 51
17 18 19 19 19 20 20 20 19 19 18 18 17 19 21 20 18 17 19 21 23 23 21 21 21 20 22 19 17 21 21 21 20 16 13 13 12 12 12 12 11 12 14 16 15 16 16 15 14 14 15 18 20 20 21 21 23 25 25 24 25 24 23 22 20 17 15 15 16 15 14 14 16 26 33 35 38 39 40 45 48 52 56 57 54 52 51 51
15 16 16 16 16 17 18 18 18 18 17 17 18 21 24 23 23 25 27 26 25 23 22 23 22 20 19 19 22 24 22 23 21 17 14 13 13 12 13 14 13 14 15 14 14 15 14 14 15 16 19 21 21 21 22 24 23 23 25 26 27 27 25 24 24 22 20 19 20 18 17 17 19 28 32 34 38 41 45 50 55 59 60 59 56 53 52 50
15 14 14 15 15 15 16 17 17 18 18 20 22 25 27 28 30 34 34 31 27 22 21 22 20 18 20 21 24 23 21 21 20 18 16 14 14 14 15 15 15 15 13 15 14 13 13 13 16 16 17 18 18 19 21 23 24 21 23 26 28 28 26 25 26 27 24 23 24 21 19 19 19 27 32 35 40 45 51 56 60 63 61 59 56 53 53 51
16 15 14 14 14 14 15 16 17 19 21 25 28 30 31 31 34 37 36 32 29 25 22 22 19 17 22 25 24 23 23 23 22 20 17 16 15 15 15 15 16 15 15 18 17 14 14 15 17 16 17 19 20 22 22 23 26 25 26 29 28 27 27 26 26 29 27 25 26 25 24 22 21 28 33 36 43 48 53 56 58 60 60 58 57 54 54 52
18 17 16 15 15 15 15 16 18 19 22 28 31 33 33 31 32 32 30 27 25 24 23 23 20 20 24 25 24 24 25 25 24 22 19 18 17 17 16 16 16 17 18 20 17 15 16 16 18 18 20 23 25 27 27 27 29 27 28 29 27 27 29 28 28 32 31 29 29 28 25 23 23 28 33 38 44 49 53 54 56 58 59 59 58 56 55 52
21 19 18 17 16 16 15 17 19 19 22 28 32 32 31 30 28 25 25 23 21 22 23 23 21 21 24 25 25 25 26 26 24 23 21 18 18 17 16 16 17 18 20 20 18 17 17 18 19 20 24 25 26 31 32 31 30 28 29 29 28 28 29 31 34 37 37 33 32 30 28 27 30 33 37 41 42 45 49 52 55 58 58 59 59 57 54 52
22 22 21 19 18 18 16 16 18 21 23 27 30 29 28 28 27 24 25 23 20 19 20 22 21 21 24 24 24 25 25 27 26 24 23 19 18 17 16 17 17 19 20 20 20 19 19 23 25 26 29 27 26 31 31 29 29 29 29 30 30 30 29 32 36 40 41 37 35 36 34 34 38 39 40 44 43 46 50 53 57 58 57 57 55 53 51 50
21 22 22 21 20 19 19 17 18 20 24 29 30 28 29 29 27 26 26 23 21 19 17 18 18 19 22 23 23 24 24 25 25 25 22 20 19 17 17 17 17 18 20 22 25 23 21 26 28 29 32 31 28 30 29 27 29 33 34 33 33 31 32 35 37 41 45 43 39 40 39 38 40 43 45 47 47 49 52 54 57 58 58 57 54 52 51 51
20 21 21 22 21 21 21 19 19 20 26 30 28 29 31 30 30 30 29 27 25 22 18 17 18 16 19 22 23 23 25 25 25 25 23 20 19 18 18 17 18 19 20 23 27 26 24 25 26 26 28 31 29 29 31 29 28 34 38 38 34 32 35 39 42 44 45 44 42 40 41 43 44 44 46 47 48 49 50 53 54 55 57 56 55 54 53 53
20 19 20 21 21 22 22 21 22 25 28 27 25 29 32 33 35 32 35 39 35 28 22 20 20 18 18 22 22 22 26 25 24 25 24 21 21 21 19 18 19 21 22 24 26 26 26 26 27 27 28 31 30 29 31 31 29 30 35 38 36 35 36 39 44 45 44 45 45 43 44 48 48 43 42 45 47 49 49 52 53 53 55 55 55 56 55 54
22 21 20 20 20 22 22 22 24 26 29 28 27 30 30 34 35 32 39 46 40 34 30 25 24 23 22 24 25 25 28 27 25 25 24 23 24 24 22 20 20 22 24 25 25 26 27 27 28 28 29 30 29 29 31 33 31 29 33 37 37 36 35 38 43 44 45 46 47 49 47 46 48 46 44 44 45 47 49 51 54 54 54 53 54 56 57 56
21 22 21 21 20 21 21 22 22 25 32 35 33 30 28 31 31 32 41 41 35 38 39 33 31 30 29 29 31 29 28 28 27 27 26 26 28 27 25 23 22 25 26 23 25 29 29 27 28 29 28 28 28 31 34 33 30 31 35 36 38 39 40 45 47 48 50 47 46 54 49 43 51 53 48 46 44 46 49 50 53 55 54 53 54 56 58 58
17 20 22 22 22 21 21 21 21 26 36 38 36 31 27 27 25 33 43 36 33 42 42 41 41 37 33 31 33 33 31 33 33 31 31 30 30 30 28 26 26 28 27 26 27 30 29 26 29 30 28 29 32 34 35 31 30 34 35 33 36 44 49 52 51 51 55 50 49 57 52 46 53 54 47 45 44 44 46 48 48 50 52 53 54 57 58 59
14 16 20 21 22 22 22 22 21 26 34 35 36 32 26 28 29 38 45 33 33 44 43 43 46 41 37 33 33 33 33 36 36 35 35 34 33 32 31 31 32 32 33 33 30 29 30 29 31 32 30 32 34 36 35 31 30 33 34 31 32 41 51 57 58 55 55 54 53 58 55 49 52 52 45 41 41 42 45 46 46 45 49 53 55 57 58 59
11 13 16 18 21 22 23 22 22 29 32 30 34 30 26 33 38 43 44 31 32 43 43 44 44 42 42 39 35 34 34 38 38 37 38 38 37 36 35 34 35 36 39 37 31 32 33 31 32 32 32 33 32 32 32 32 34 34 34 33 32 37 42 49 57 56 56 59 57 58 56 49 49 47 39 37 38 41 44 47 48 47 47 52 57 58 60 60
9 10 13 16 17 20 21 22 25 31 29 28 31 31 30 37 41 42 39 33 37 44 44 45 44 42 43 42 40 38 38 40 39 39 40 40 41 40 39 39 39 37 38 37 34 35 34 32 35 33 32 32 31 32 32 33 37 35 36 37 36 39 39 43 54 56 58 61 56 57 54 49 51 44 34 34 36 38 43 46 50 51 51 54 59 60 60 61
7 8 10 13 14 17 19 20 23 26 26 28 32 34 37 41 41 39 35 34 40 45 45 45 45 42 41 42 44 44 43 43 43 43 43 42 42 41 40 42 41 38 41 42 38 37 37 38 39 34 33 32 30 35 35 37 38 34 36 37 37 42 43 46 53 51 52 55 53 57 54 50 55 46 35 37 38 39 44 47 51 53 53 55 57 59 60 63
9 7 7 10 11 13 16 18 20 22 24 31 35 37 39 40 40 39 37 35 38 42 45 44 44 45 43 44 46 46 47 48 46 45 45 43 42 42 41 42 41 41 44 44 40 40 42 44 42 37 37 36 34 37 40 43 42 37 37 36 35 41 42 43 47 44 45 47 46 48 47 49 52 45 41 42 41 43 47 49 52 53 53 53 55 60 62 65
12 9 7 8 9 10 11 14 17 19 22 31 39 43 40 37 36 37 39 39 38 41 45 43 42 45 48 49 50 49 49 51 50 47 47 45 42 42 42 42 44 46 45 43 43 42 40 42 45 42 39 38 37 40 42 43 42 39 38 36 35 39 39 41 44 47 48 45 43 42 44 50 49 44 48 48 46 48 50 51 53 52 52 53 57 63 65 66
16 12 9 8 8 8 8 9 13 16 21 31 40 43 41 36 33 32 34 36 37 40 45 46 44 46 49 52 56 56 52 54 55 51 49 47 44 43 42 43 45 44 43 45 46 43 39 41 44 42 39 39 39 42 43 41 41 41 38 37 39 38 41 45 46 50 51 45 45 45 45 51 51 47 49 51 51 53 54 57 58 58 59 58 62 65 66 69
20 16 13 12 11 9 6 7 9 11 17 28 37 41 41 37 32 28 29 33 37 37 42 48 48 48 49 50 57 60 55 55 57 56 55 54 50 47 46 46 45 41 41 44 46 44 43 45 44 40 39 39 39 42 44 41 40 41 39 38 40 40 44 49 50 53 52 47 50 49 47 52 54 51 50 50 52 54 56 59 61 65 68 68 68 67 68 72
27 22 18 19 19 13 7 6 8 9 15 26 36 41 41 36 30 25 23 28 33 34 40 49 49 48 49 48 55 60 58 58 59 57 59 58 55 53 50 47 44 42 42 42 44 46 45 45 46 44 43 42 41 45 48 44 39 38 39 39 40 43 47 47 47 52 52 51 52 49 52 58 55 52 50 49 53 57 60 63 65 67 70 71 71 67 68 70
32 29 24 25 22 14 10 9 8 11 17 26 33 35 34 34 31 26 22 24 29 32 40 50 49 48 49 49 51 56 59 62 59 56 58 59 56 55 53 51 46 43 45 44 45 51 51 47 48 48 47 44 45 49 51 48 43 39 39 41 41 47 50 46 45 48 48 53 54 50 54 59 56 55 53 52 57 61 63 67 68 68 68 71 70 67 68 67
31 31 30 31 23 14 12 13 14 17 21 26 30 29 26 28 29 27 24 25 28 32 39 48 50 49 50 48 45 48 55 61 58 55 59 62 59 56 54 54 49 44 46 47 48 53 53 48 49 53 51 47 48 49 48 47 45 41 40 41 41 43 44 43 45 44 43 54 62 58 55 55 55 57 55 55 60 63 63 64 64 65 67 69 68 65 65 64
24 30 35 38 30 20 17 19 22 26 29 28 27 24 22 22 26 28 27 26 29 33 37 45 50 51 50 49 46 44 48 56 56 56 57 58 58 58 54 53 52 49 50 50 49 48 49 50 54 57 52 48 48 48 47 45 43 42 41 41 43 45 43 43 48 48 45 51 58 58 55 53 53 54 52 52 57 59 60 61 63 65 66 66 66 64 65 65
21 30 41 47 46 36 26 25 28 28 30 29 25 24 23 22 23 26 26 28 32 36 39 45 51 54 51 49 48 44 44 49 54 57 57 54 55 57 54 52 53 55 56 54 49 47 51 53 55 54 51 49 48 47 48 45 44 45 46 45 49 50 47 47 52 51 47 47 50 52 53 52 52 54 51 48 49 51 54 58 62 67 68 68 68 68 68 67
20 30 43 51 53 45 35 33 33 29 30 31 29 28 27 24 22 24 26 32 35 36 40 46 51 53 51 50 50 47 45 46 49 56 58 55 55 54 51 50 51 55 59 57 51 51 53 52 50 53 56 53 49 48 49 47 46 48 48 49 50 48 48 51 54 53 49 49 48 48 49 50 52 56 55 49 48 50 51 53 57 62 66 67 66 67 68 68
21 32 45 52 52 49 51 52 47 42 43 43 39 35 31 26 24 24 27 32 34 36 42 47 50 52 51 50 52 52 50 47 47 53 57 58 57 54 52 49 49 53 56 55 55 54 53 53 52 55 62 63 56 54 55 53 49 49 50 50 49 47 48 48 48 51 51 49 50 50 52 52 50 52 54 53 51 53 54 54 56 57 60 61 61 62 66 68
23 34 46 54 52 52 62 65 58 55 56 55 51 44 36 31 28 26 27 31 33 36 44 48 49 51 52 52 55 56 55 52 50 52 56 61 60 56 54 53 52 54 54 53 55 55 56 60 62 60 66 70 66 62 62 58 54 52 51 50 50 49 46 42 43 49 49 47 50 53 51 49 47 48 52 54 52 52 53 56 57 58 56 55 55 56 59 63
26 36 46 56 59 62 68 66 61 61 61 59 57 51 44 39 35 29 27 30 34 37 44 48 48 52 54 54 56 58 57 57 55 54 57 61 60 56 56 56 57 59 57 52 51 57 61 63 64 63 62 62 61 58 56 55 55 53 50 49 52 52 49 46 45 49 49 47 48 48 45 44 45 45 49 52 51 48 48 50 52 55 55 54 54 55 56 58
28 39 48 57 68 77 79 74 72 72 67 62 60 56 51 46 41 37 32 33 36 40 45 48 47 52 55 54 56 57 57 58 57 57 60 61 60 58 54 53 55 55 56 52 51 59 66 62 58 61 58 55 55 54 52 52 52 52 49 49 52 52 51 48 44 45 47 46 46 46 44 44 43 43 45 48 48 48 48 48 49 52 54 54 55 56 55 55
27 37 46 54 68 82 86 82 82 80 72 67 64 60 55 49 46 45 41 38 39 43 49 50 47 49 52 53 55 56 59 62 60 59 60 61 62 61 55 53 54 52 53 55 55 62 68 62 57 59 58 56 56 55 54 54 52 52 52 50 48 47 47 44 42 45 45 44 47 50 48 45 43 42 44 45 46 47 47 46 46 47 48 49 50 51 50 50
27 35 44 51 63 79 86 83 82 80 77 74 68 61 57 54 51 49 47 47 46 46 50 54 51 48 49 52 55 57 60 63 63 61 60 59 63 63 58 56 54 50 53 57 58 60 64 60 59 62 61 58 58 56 54 54 53 54 55 53 48 45 43 42 44 48 48 48 53 55 52 49 46 45 46 44 44 45 43 42 43 43 43 44 44 46 46 46
33 40 46 49 57 73 83 83 82 83 81 78 73 66 61 58 56 53 51 53 52 50 51 53 53 51 50 51 52 54 57 61 64 64 62 60 61 62 60 58 54 51 53 55 55 57 59 58 61 66 62 58 58 56 53 52 51 52 53 54 51 46 44 45 46 47 47 47 51 54 53 51 47 46 47 45 44 46 45 47 48 45 44 43 42 43 45 45
40 44 46 49 55 68 81 85 85 88 87 82 79 75 69 63 60 57 56 54 52 52 53 53 53 53 52 52 52 51 52 56 59 61 62 63 63 61 61 59 55 52 53 53 53 54 57 57 60 65 61 54 52 50 49 49 48 48 49 51 50 48 47 47 46 45 44 42 45 50 53 52 50 50 49 48 48 48 50 52 53 52 50 48 47 46 47 47
41 42 42 45 50 61 72 77 79 86 91 89 85 80 76 71 65 62 60 55 52 51 51 51 52 52 52 53 53 51 50 52 53 53 55 59 61 61 61 59 57 55 55 56 56 57 59 57 56 59 56 50 50 50 50 50 48 48 49 48 47 47 47 46 47 47 47 47 47 49 50 53 56 56 54 53 51 50 50 51 53 55 56 56 56 56 56 55